User: anonymous   Login
Location: Unspecified
(0.0000°N, 0.0000°E)
Time: 02:02:32
(UTC+00:00)
Language:

TBA - TO BE ASSIGNED - Orbit

View from above orbital plane
View from above orbital plane
View from above satellite
View from above satellite

Ground track
Ground track

The orbit is defined by the following mean orbital elements,

1 68549U          26145.58864806 +.00000000 +00000-0 +59015-3 0 00001
2 68549  53.1612   5.0260 0001152  88.0632 272.0502 15.34410488    07
Epoch (UTC): 25 May 2026 14:07:39
Eccentricity: 0.0001152
inclination: 53.1612°
perigee height: 462 km
apogee height: 463 km
right ascension of ascending node: 5.0260°
argument of perigee: 88.0632°
revolutions per day: 15.34410488
mean anomaly at epoch: 272.0502°

The dashed part of the orbit path shows where the satellite is in the earth's shadow,  

DLR